Change the Weather History Date:

Thursday, February 21, 2013

  Actual Average Record
Temperature  
Mean Temperature 26 °F 38 °F  
Max Temperature 29 °F 48 °F 69 °F (1981)
Min Temperature 22 °F 28 °F -4 °F (1939)
Degree Days  
Heating Degree Days 39 27  
Month to date heating degree days 590 624  
Since 1 July heating degree days 3190 3439  
Cooling Degree Days 0 0  
Month to date cooling degree days 0 0  
Year to date cooling degree days 1 0  
Moisture  
Dew Point 21 °F    
Average Humidity 76    
Maximum Humidity 96    
Minimum Humidity 55    
Precipitation  
Precipitation 0.87 in 0.07 in 1.17 in (1997)
Month to date precipitation 1.65 1.47  
Year to date precipitation 4.35 3.14  
Sea Level Pressure  
Sea Level Pressure 29.92 in    
Wind  
Wind Speed 13 mph (East)    
Max Wind Speed 25 mph    
Max Gust Speed 36 mph    
Visibility 2 miles    
Events Fog , Rain , Snow , Thunderstorm    
T = Trace of Precipitation, MM = Missing Value Source: NWS Daily Summary

Daily Weather History Graph

Daily Weather History Graph

Search for Another Location

Airport or City:

Trip Planner

Search our weather history database for the weather conditions in past years. The results will help you decide how hot, cold, wet, or windy it might be!

Date:

Astronomy

Feb. 21, 2013 Rise Set
Actual Time 6:55 AM CST 5:57 PM CST
Civil Twilight 6:28 AM CST 6:24 PM CST
Nautical Twilight 5:57 AM CST 6:55 PM CST
Astronomical Twilight 5:27 AM CST 7:26 PM CST
Moon 2:14 PM CST (2/21) 3:58 AM CST (2/21)
Length of Visible Light 11h 55m
Length of Day
11h 01m
Waxing Gibbous, 84% of the Moon is Illuminated
Feb 21
Waxing Gibbous
Feb 25
Full
Mar 4
Last Quarter
Mar 11
New
Mar 19
First Quarter

Hourly Weather History & Observations

Time (CST) Temp. Windchill Dew Point Humidity Pressure Visibility Wind Dir Wind Speed Gust Speed Precip Events Conditions
12:53 AM 25.0 °F 14.8 °F 10.0 °F 53% 30.26 in 10.0 mi East 10.4 mph 18.4 mph N/A   Overcast
1:53 AM 25.0 °F 14.8 °F 14.0 °F 63% 30.25 in 10.0 mi East 10.4 mph - N/A   Overcast
2:53 AM 25.0 °F 13.6 °F 14.0 °F 63% 30.17 in 10.0 mi East 12.7 mph 20.7 mph N/A   Scattered Clouds
3:53 AM 25.0 °F 13.1 °F 12.9 °F 60% 30.17 in 10.0 mi East 13.8 mph - N/A   Overcast
4:53 AM 25.0 °F 14.2 °F 12.9 °F 60% 30.13 in 10.0 mi East 11.5 mph - N/A   Overcast
5:53 AM 25.0 °F 13.1 °F 14.0 °F 63% 30.12 in 10.0 mi East 13.8 mph - N/A   Overcast
7:07 AM 24.8 °F 11.9 °F 17.6 °F 74% 30.07 in 1.8 mi East 16.1 mph 23.0 mph 0.00 in Snow Light Snow
7:10 AM 24.8 °F 10.7 °F 17.6 °F 74% 30.06 in 1.2 mi East 19.6 mph 27.6 mph 0.00 in Snow Light Snow
7:16 AM 23.0 °F 10.1 °F 17.6 °F 80% 30.06 in 0.8 mi East 15.0 mph 28.8 mph 0.01 in Snow Light Snow
7:33 AM 21.2 °F 7.8 °F 19.4 °F 93% 30.04 in 1.0 mi East 15.0 mph 24.2 mph 0.05 in Snow Light Snow
7:50 AM 21.2 °F 7.3 °F 19.4 °F 93% 30.03 in 1.2 mi East 16.1 mph 27.6 mph 0.11 in Snow Light Snow
7:53 AM 21.9 °F 8.7 °F 19.0 °F 89% 30.07 in 1.2 mi East 15.0 mph 27.6 mph 0.11 in Snow Light Snow
7:58 AM 23.0 °F 9.2 °F 19.4 °F 86% 30.04 in 2.0 mi East 17.3 mph 26.5 mph 0.02 in Snow Light Snow
8:05 AM 23.0 °F 9.6 °F 19.4 °F 86% 30.05 in 1.2 mi East 16.1 mph 26.5 mph 0.03 in Snow Light Snow
8:09 AM 23.0 °F 10.1 °F 19.4 °F 86% 30.06 in 0.8 mi East 15.0 mph 25.3 mph 0.03 in Snow Light Snow
8:26 AM 21.2 °F 7.3 °F 19.4 °F 93% 30.04 in 0.2 mi East 16.1 mph 26.5 mph 0.08 in Fog , Snow Heavy Snow
8:53 AM 21.9 °F 8.2 °F 19.0 °F 89% 30.07 in 0.2 mi East 16.1 mph 26.5 mph 0.14 in Fog , Snow Heavy Snow
9:03 AM 21.2 °F 8.9 °F 19.4 °F 93% 30.07 in 0.2 mi ENE 12.7 mph - 0.03 in Fog , Snow Heavy Snow
9:19 AM 21.2 °F 10.9 °F 19.4 °F 93% 30.09 in 0.2 mi ENE 9.2 mph - 0.06 in Fog , Snow Heavy Snow
9:53 AM 21.9 °F 9.2 °F 19.9 °F 92% 30.09 in 0.2 mi East 13.8 mph - 0.13 in Fog , Snow Heavy Snow
10:07 AM 21.2 °F 6.8 °F 19.4 °F 93% 30.03 in 0.2 mi ENE 17.3 mph 25.3 mph 0.04 in Fog , Snow , Thunderstorm Heavy Snow
10:15 AM 21.2 °F 6.8 °F 19.4 °F 93% 30.01 in 0.2 mi East 17.3 mph 26.5 mph 0.07 in Fog , Snow , Thunderstorm Snow
10:22 AM 23.0 °F 8.3 °F 19.4 °F 86% 30.02 in 0.5 mi East 19.6 mph 27.6 mph 0.10 in Fog , Snow Snow
10:32 AM 23.0 °F 7.6 °F 19.4 °F 86% 29.99 in 0.5 mi ENE 21.9 mph 27.6 mph 0.12 in Fog , Snow Snow
10:41 AM 23.0 °F 8.7 °F 19.4 °F 86% 29.98 in 0.5 mi ENE 18.4 mph - 0.16 in Fog , Snow Snow
10:53 AM 23.0 °F 8.0 °F 19.9 °F 88% 30.02 in 0.5 mi East 20.7 mph 27.6 mph 0.22 in Fog , Snow Snow
11:14 AM 23.0 °F 8.7 °F 19.4 °F 86% 29.99 in 0.2 mi East 18.4 mph 25.3 mph 0.03 in Fog , Snow Heavy Snow
11:53 AM 23.0 °F 8.3 °F 21.0 °F 92% 29.99 in 0.2 mi East 19.6 mph - 0.09 in Fog , Snow Heavy Snow
12:27 PM 24.8 °F 9.3 °F 19.4 °F 80% 29.90 in 0.5 mi East 24.2 mph 31.1 mph 0.07 in Fog , Snow Snow
12:53 PM 24.1 °F 9.0 °F 21.0 °F 88% 29.91 in 0.2 mi East 21.9 mph 34.5 mph 0.09 in Fog , Snow Snow
1:05 PM 24.8 °F 10.0 °F 21.2 °F 86% 29.89 in 1.2 mi East 21.9 mph 27.6 mph 0.01 in   Overcast
1:12 PM 24.8 °F 10.7 °F 21.2 °F 86% 29.89 in 1.8 mi East 19.6 mph 26.5 mph 0.02 in   Overcast
1:19 PM 24.8 °F 11.1 °F 21.2 °F 86% 29.87 in 1.5 mi East 18.4 mph 26.5 mph 0.02 in Rain Light Freezing Rain
1:26 PM 24.8 °F 10.0 °F 21.2 °F 86% 29.87 in 1.2 mi East 21.9 mph 28.8 mph 0.03 in Rain Light Freezing Rain
1:30 PM 24.8 °F 9.3 °F 21.2 °F 86% 29.87 in 1.0 mi East 24.2 mph 29.9 mph 0.03 in Rain Light Freezing Rain
1:37 PM 24.8 °F 10.7 °F 21.2 °F 86% 29.87 in 1.2 mi East 19.6 mph 29.9 mph 0.03 in Rain Light Freezing Rain
1:47 PM 24.8 °F 10.7 °F 21.2 °F 86% 29.87 in 2.0 mi East 19.6 mph 27.6 mph 0.04 in Rain Light Freezing Rain
1:50 PM 24.8 °F 10.7 °F 21.2 °F 86% 29.86 in 3.0 mi East 19.6 mph 27.6 mph 0.04 in   Overcast
1:53 PM 25.0 °F 12.2 °F 21.9 °F 88% 29.89 in 3.0 mi East 16.1 mph 25.3 mph 0.04 in   Overcast
2:53 PM 27.0 °F 14.7 °F 24.1 °F 89% 29.86 in 3.0 mi East 16.1 mph - 0.02 in   Overcast
3:10 PM 26.6 °F 14.7 °F 24.8 °F 93% 29.81 in 2.5 mi East 15.0 mph 26.5 mph 0.01 in   Overcast
3:20 PM 28.4 °F 17.0 °F 24.8 °F 86% 29.80 in 4.0 mi East 15.0 mph - 0.01 in   Overcast
3:53 PM 28.9 °F 16.9 °F 25.0 °F 85% 29.82 in 6.0 mi East 17.3 mph - 0.01 in   Overcast
4:41 PM 28.4 °F 16.6 °F 24.8 °F 86% 29.79 in 2.5 mi East 16.1 mph 31.1 mph 0.00 in Rain Light Freezing Rain
4:53 PM 28.0 °F 15.7 °F 25.0 °F 88% 29.81 in 2.0 mi East 17.3 mph - 0.00 in Rain Light Freezing Rain
5:21 PM 28.4 °F 17.0 °F 24.8 °F 86% 29.77 in 2.5 mi East 15.0 mph - 0.00 in Rain Light Freezing Rain
5:28 PM 28.4 °F 16.2 °F 24.8 °F 86% 29.77 in 3.0 mi East 17.3 mph - 0.00 in Rain Light Freezing Rain
5:53 PM 27.0 °F 15.2 °F 25.0 °F 92% 29.81 in 2.5 mi ESE 15.0 mph - 0.00 in Rain Light Freezing Rain
6:09 PM 26.6 °F 15.2 °F 24.8 °F 93% 29.78 in 4.0 mi ESE 13.8 mph - 0.00 in Rain Light Freezing Rain
6:45 PM 26.6 °F 15.7 °F 24.8 °F 93% 29.79 in 2.5 mi ESE 12.7 mph - 0.00 in Rain Light Freezing Rain
6:53 PM 27.0 °F 17.3 °F 25.0 °F 92% 29.83 in 2.0 mi ESE 10.4 mph - 0.00 in Rain Light Freezing Rain
6:58 PM 26.6 °F 16.8 °F 24.8 °F 93% 29.79 in 1.8 mi ESE 10.4 mph - 0.00 in Snow Light Snow
7:07 PM 26.6 °F 16.8 °F 24.8 °F 93% 29.78 in 1.0 mi East 10.4 mph - 0.00 in Snow Light Snow
7:18 PM 26.6 °F 16.8 °F 24.8 °F 93% 29.78 in 0.8 mi ESE 10.4 mph - 0.00 in Snow Light Snow
7:32 PM 26.6 °F 19.1 °F 24.8 °F 93% 29.78 in 1.0 mi ESE 6.9 mph - 0.01 in Snow Light Snow
7:37 PM 26.6 °F 19.1 °F 24.8 °F 93% 29.78 in 1.2 mi East 6.9 mph - 0.01 in Snow Light Snow
7:53 PM 27.0 °F 19.5 °F 25.0 °F 92% 29.81 in 1.5 mi East 6.9 mph - 0.01 in Snow Light Snow
8:24 PM 26.6 °F 20.0 °F 24.8 °F 93% 29.77 in 2.0 mi East 5.8 mph - 0.00 in Snow Light Snow
8:41 PM 26.6 °F 20.0 °F 24.8 °F 93% 29.77 in 4.0 mi East 5.8 mph - 0.00 in   Overcast
8:53 PM 27.0 °F 23.0 °F 25.0 °F 92% 29.81 in 5.0 mi East 3.5 mph - 0.00 in   Overcast
9:00 PM 26.6 °F 21.2 °F 24.8 °F 93% 29.78 in 5.0 mi ESE 4.6 mph - N/A   Overcast
9:53 PM 27.0 °F 21.6 °F 25.0 °F 92% 29.81 in 4.0 mi East 4.6 mph - N/A   Overcast
10:13 PM 26.6 °F 20.0 °F 24.8 °F 93% 29.77 in 2.5 mi East 5.8 mph - 0.01 in   Overcast
10:21 PM 26.6 °F 20.0 °F 24.8 °F 93% 29.77 in 3.0 mi ESE 5.8 mph - 0.01 in   Overcast
10:53 PM 28.0 °F 20.8 °F 27.0 °F 96% 29.81 in 3.0 mi ESE 6.9 mph - 0.01 in   Overcast
11:50 PM 28.4 °F 22.2 °F 26.6 °F 93% 29.77 in 3.0 mi SSE 5.8 mph - N/A   Overcast
11:53 PM 28.9 °F 22.8 °F 27.0 °F 92% 29.80 in 3.0 mi SE 5.8 mph - N/A   Overcast